QPF
0.01 0.00 0.00 0.00 0.00 0.00 0.00 0.00 0.01 0.01 0.01 0.01 0.01 0.01 0.00 0.00 0.00 0.00 0.00 0.00 0.00 0.00 0.01 0.01 0.01 0.01 0.01 0.02 0.02 0.02 0.03 0.03 0.03 0.03 0.03 0.02 0.02 0.02 0.02 0.02 0.02 0.02 0.02
0.01 0.00 0.00 0.00 0.00 0.00 0.00 0.00 0.01 0.01 0.01 0.01 0.01 0.00 0.00 0.00 0.00 0.00 0.00 0.00 0.00 0.00 0.00 0.01 0.02 0.02 0.02 0.02 0.02 0.02 0.03 0.03 0.03 0.03 0.03 0.02 0.02 0.02 0.02 0.02 0.02 0.02 0.02
0.00 0.00 0.00 0.00 0.00 0.00 0.00 0.00 0.00 0.00 0.00 0.01 0.01 0.01 0.01 0.01 0.01 0.00 0.00 0.00 0.00 0.00 0.00 0.00 0.01 0.02 0.02 0.02 0.02 0.02 0.03 0.03 0.03 0.03 0.03 0.03 0.02 0.01 0.02 0.03 0.03 0.03 0.02
0.00 0.00 0.00 0.00 0.00 0.00 0.00 0.00 0.00 0.00 0.00 0.01 0.02 0.04 0.03 0.02 0.01 0.01 0.01 0.00 0.00 0.00 0.00 0.01 0.01 0.01 0.02 0.03 0.03 0.03 0.04 0.04 0.03 0.03 0.03 0.03 0.03 0.01 0.01 0.02 0.02 0.02 0.02
0.00 0.00 0.00 0.00 0.00 0.00 0.00 0.00 0.00 0.00 0.00 0.00 0.00 0.01 0.03 0.03 0.03 0.02 0.02 0.01 0.01 0.01 0.01 0.01 0.02 0.02 0.02 0.03 0.04 0.04 0.06 0.08 0.07 0.05 0.04 0.04 0.04 0.02 0.01 0.02 0.02 0.03 0.03
0.00 0.00 0.00 0.00 0.00 0.00 0.00 0.00 0.00 0.00 0.00 0.00 0.01 0.01 0.01 0.02 0.02 0.02 0.01 0.01 0.01 0.01 0.01 0.02 0.03 0.04 0.03 0.03 0.03 0.04 0.04 0.07 0.09 0.09 0.06 0.05 0.05 0.04 0.02 0.01 0.02 0.02 0.04
0.00 0.00 0.00 0.00 0.00 0.00 0.00 0.00 0.01 0.01 0.00 0.01 0.01 0.01 0.02 0.02 0.01 0.01 0.01 0.01 0.00 0.01 0.01 0.01 0.02 0.02 0.02 0.02 0.02 0.02 0.03 0.05 0.08 0.07 0.07 0.06 0.06 0.06 0.04 0.02 0.02 0.02 0.04
0.00 0.00 0.00 0.00 0.00 0.00 0.00 0.00 0.01 0.01 0.01 0.01 0.01 0.02 0.02 0.02 0.02 0.02 0.01 0.01 0.01 0.00 0.00 0.00 0.00 0.01 0.01 0.01 0.01 0.01 0.01 0.04 0.08 0.08 0.07 0.06 0.06 0.07 0.06 0.04 0.03 0.03 0.04
0.00 0.00 0.00 0.00 0.00 0.00 0.00 0.00 0.00 0.01 0.00 0.00 0.01 0.01 0.01 0.01 0.02 0.02 0.02 0.01 0.01 0.01 0.00 0.00 0.00 0.00 0.00 0.00 0.01 0.01 0.01 0.02 0.05 0.08 0.08 0.07 0.06 0.07 0.08 0.05 0.04 0.04 0.04
0.00 0.00 0.00 0.00 0.00 0.00 0.00 0.00 0.00 0.00 0.00 0.00 0.00 0.00 0.01 0.01 0.01 0.01 0.01 0.01 0.01 0.01 0.01 0.00 0.00 0.00 0.00 0.00 0.00 0.01 0.01 0.01 0.04 0.07 0.09 0.09 0.08 0.08 0.09 0.07 0.05 0.05 0.05
0.00 0.00 0.00 0.00 0.00 0.00 0.00 0.00 0.00 0.00 0.00 0.00 0.00 0.00 0.00 0.00 0.00 0.01 0.01 0.01 0.01 0.01 0.01 0.01 0.01 0.00 0.00 0.00 0.00 0.00 0.01 0.01 0.03 0.05 0.07 0.09 0.09 0.09 0.09 0.07 0.06 0.05 0.05
0.00 0.00 0.00 0.00 0.00 0.00 0.00 0.00 0.00 0.00 0.00 0.00 0.00 0.00 0.00 0.00 0.01 0.01 0.01 0.01 0.01 0.01 0.01 0.01 0.01 0.01 0.00 0.00 0.00 0.01 0.01 0.01 0.03 0.05 0.06 0.07 0.09 0.09 0.08 0.06 0.05 0.05 0.05
0.00 0.00 0.00 0.00 0.00 0.00 0.00 0.00 0.00 0.00 0.00 0.00 0.00 0.00 0.00 0.00 0.01 0.01 0.01 0.01 0.01 0.01 0.01 0.01 0.01 0.01 0.01 0.01 0.01 0.01 0.01 0.01 0.02 0.05 0.05 0.06 0.08 0.10 0.09 0.05 0.05 0.05 0.05
0.00 0.00 0.00 0.00 0.00 0.00 0.00 0.00 0.00 0.00 0.00 0.00 0.00 0.01 0.01 0.01 0.01 0.01 0.01 0.02 0.02 0.01 0.01 0.01 0.01 0.01 0.01 0.01 0.01 0.01 0.01 0.01 0.03 0.05 0.05 0.05 0.06 0.10 0.09 0.06 0.05 0.06 0.07
0.00 0.00 0.00 0.00 0.00 0.00 0.00 0.00 0.00 0.00 0.00 0.00 0.00 0.01 0.01 0.01 0.01 0.01 0.01 0.02 0.02 0.02 0.01 0.01 0.01 0.01 0.01 0.01 0.00 0.00 0.01 0.02 0.03 0.05 0.05 0.05 0.06 0.09 0.09 0.04 0.03 0.03 0.04
0.00 0.00 0.00 0.00 0.00 0.00 0.00 0.00 0.00 0.00 0.00 0.00 0.00 0.00 0.01 0.01 0.01 0.01 0.01 0.01 0.02 0.02 0.02 0.01 0.01 0.01 0.01 0.01 0.00 0.01 0.02 0.02 0.03 0.04 0.05 0.05 0.05 0.07 0.06 0.04 0.03 0.03 0.03
0.00 0.00 0.00 0.00 0.00 0.00 0.00 0.00 0.00 0.00 0.00 0.00 0.00 0.00 0.00 0.01 0.02 0.02 0.02 0.02 0.01 0.02 0.02 0.02 0.01 0.01 0.00 0.00 0.01 0.01 0.03 0.03 0.03 0.04 0.04 0.04 0.05 0.05 0.04 0.04 0.04 0.04 0.04
0.00 0.00 0.00 0.00 0.00 0.00 0.00 0.00 0.00 0.00 0.00 0.00 0.00 0.00 0.00 0.01 0.01 0.02 0.02 0.02 0.02 0.02 0.02 0.02 0.01 0.01 0.01 0.01 0.01 0.02 0.05 0.06 0.04 0.05 0.04 0.04 0.04 0.04 0.04 0.04 0.04 0.05 0.05
0.00 0.00 0.00 0.00 0.00 0.00 0.00 0.00 0.00 0.00 0.00 0.00 0.00 0.00 0.00 0.01 0.01 0.02 0.02 0.02 0.02 0.02 0.02 0.02 0.02 0.01 0.01 0.01 0.01 0.02 0.07 0.07 0.04 0.05 0.04 0.04 0.06 0.05 0.05 0.06 0.06 0.07 0.06
0.00 0.00 0.00 0.00 0.00 0.00 0.00 0.00 0.00 0.00 0.00 0.00 0.00 0.00 0.00 0.01 0.01 0.02 0.02 0.03 0.03 0.04 0.04 0.04 0.02 0.01 0.01 0.01 0.01 0.03 0.09 0.06 0.04 0.04 0.04 0.05 0.06 0.06 0.06 0.05 0.05 0.07 0.09
0.00 0.00 0.00 0.00 0.00 0.00 0.00 0.00 0.00 0.00 0.00 0.00 0.00 0.00 0.00 0.01 0.01 0.02 0.03 0.03 0.03 0.03 0.04 0.03 0.02 0.01 0.01 0.02 0.02 0.05 0.08 0.05 0.04 0.03 0.03 0.05 0.05 0.05 0.05 0.05 0.05 0.07 0.09
0.00 0.00 0.00 0.00 0.00 0.00 0.00 0.01 0.01 0.00 0.00 0.00 0.00 0.00 0.00 0.01 0.01 0.02 0.02 0.03 0.04 0.04 0.03 0.03 0.03 0.02 0.02 0.03 0.04 0.05 0.05 0.05 0.05 0.04 0.03 0.03 0.04 0.04 0.04 0.05 0.05 0.06 0.07
0.00 0.00 0.00 0.00 0.00 0.00 0.00 0.01 0.01 0.00 0.00 0.00 0.00 0.00 0.00 0.01 0.01 0.01 0.02 0.03 0.03 0.03 0.03 0.03 0.02 0.02 0.02 0.03 0.06 0.05 0.04 0.04 0.04 0.03 0.03 0.03 0.03 0.03 0.04 0.05 0.05 0.05 0.06
0.00 0.00 0.00 0.00 0.00 0.00 0.00 0.00 0.01 0.00 0.00 0.00 0.00 0.00 0.00 0.01 0.01 0.02 0.03 0.03 0.03 0.03 0.03 0.02 0.02 0.02 0.02 0.04 0.06 0.06 0.05 0.05 0.03 0.03 0.03 0.04 0.03 0.03 0.03 0.04 0.05 0.04 0.04
0.00 0.00 0.00 0.00 0.00 0.00 0.00 0.01 0.01 0.00 0.00 0.00 0.00 0.00 0.00 0.01 0.01 0.03 0.03 0.03 0.03 0.03 0.03 0.03 0.03 0.03 0.04 0.05 0.07 0.07 0.06 0.06 0.05 0.04 0.03 0.04 0.04 0.04 0.04 0.05 0.05 0.04 0.03
0.00 0.00 0.00 0.00 0.00 0.00 0.00 0.01 0.01 0.01 0.01 0.00 0.00 0.00 0.01 0.01 0.02 0.02 0.03 0.03 0.03 0.03 0.03 0.03 0.02 0.02 0.03 0.03 0.05 0.06 0.07 0.07 0.06 0.05 0.03 0.04 0.04 0.04 0.06 0.06 0.05 0.04 0.04
MSLP
1021.55 1021.79 1021.99 1022.15 1022.31 1022.49 1022.71 1022.94 1023.19 1023.43 1023.63 1023.78 1023.87 1023.91 1023.91 1023.88 1023.84 1023.78 1023.70 1023.59 1023.43 1023.21 1022.94 1022.61 1022.24 1021.86 1021.48 1021.13 1020.80 1020.49 1020.21 1019.92 1019.62 1019.30 1018.95 1018.56 1018.15 1017.70 1017.23 1016.73 1016.19 1015.62 1015.01
1021.57 1021.84 1022.07 1022.31 1022.55 1022.80 1023.08 1023.36 1023.63 1023.87 1024.07 1024.21 1024.30 1024.34 1024.36 1024.37 1024.36 1024.34 1024.30 1024.21 1024.07 1023.86 1023.58 1023.24 1022.84 1022.42 1021.99 1021.57 1021.18 1020.80 1020.44 1020.08 1019.71 1019.32 1018.91 1018.47 1018.00 1017.51 1016.99 1016.44 1015.85 1015.22 1014.56
1021.54 1021.82 1022.10 1022.40 1022.72 1023.06 1023.40 1023.73 1024.03 1024.29 1024.48 1024.62 1024.71 1024.76 1024.80 1024.82 1024.84 1024.85 1024.82 1024.76 1024.63 1024.42 1024.14 1023.79 1023.39 1022.95 1022.49 1022.03 1021.58 1021.14 1020.70 1020.26 1019.81 1019.34 1018.85 1018.34 1017.82 1017.28 1016.71 1016.11 1015.48 1014.82 1014.12
1021.48 1021.78 1022.11 1022.47 1022.86 1023.26 1023.66 1024.04 1024.37 1024.64 1024.84 1024.98 1025.07 1025.13 1025.18 1025.22 1025.24 1025.26 1025.24 1025.18 1025.05 1024.85 1024.57 1024.23 1023.83 1023.39 1022.93 1022.46 1021.97 1021.48 1020.98 1020.45 1019.91 1019.35 1018.78 1018.20 1017.61 1017.01 1016.40 1015.76 1015.09 1014.39 1013.65
1021.43 1021.74 1022.10 1022.51 1022.96 1023.41 1023.85 1024.26 1024.61 1024.89 1025.09 1025.24 1025.35 1025.42 1025.48 1025.52 1025.56 1025.56 1025.54 1025.46 1025.32 1025.11 1024.84 1024.51 1024.13 1023.72 1023.28 1022.81 1022.32 1021.80 1021.24 1020.64 1020.01 1019.36 1018.70 1018.04 1017.37 1016.72 1016.05 1015.37 1014.65 1013.90 1013.10
1021.37 1021.70 1022.10 1022.54 1023.01 1023.50 1023.96 1024.38 1024.73 1025.02 1025.23 1025.40 1025.52 1025.61 1025.68 1025.74 1025.78 1025.78 1025.73 1025.63 1025.47 1025.25 1024.98 1024.67 1024.32 1023.95 1023.54 1023.10 1022.61 1022.07 1021.47 1020.81 1020.11 1019.37 1018.62 1017.88 1017.14 1016.41 1015.67 1014.92 1014.14 1013.31 1012.42
1021.28 1021.64 1022.06 1022.53 1023.02 1023.51 1023.97 1024.39 1024.74 1025.03 1025.26 1025.44 1025.59 1025.72 1025.82 1025.90 1025.94 1025.93 1025.87 1025.74 1025.56 1025.32 1025.05 1024.75 1024.44 1024.10 1023.73 1023.32 1022.84 1022.30 1021.67 1020.96 1020.19 1019.38 1018.56 1017.73 1016.91 1016.09 1015.28 1014.43 1013.55 1012.60 1011.58
1021.14 1021.53 1021.98 1022.47 1022.97 1023.46 1023.91 1024.31 1024.65 1024.94 1025.19 1025.40 1025.60 1025.77 1025.92 1026.04 1026.10 1026.09 1026.01 1025.86 1025.65 1025.40 1025.12 1024.83 1024.53 1024.23 1023.89 1023.50 1023.04 1022.49 1021.83 1021.09 1020.27 1019.40 1018.50 1017.60 1016.69 1015.79 1014.87 1013.91 1012.88 1011.77 1010.58
1020.89 1021.35 1021.84 1022.35 1022.86 1023.35 1023.78 1024.17 1024.51 1024.80 1025.08 1025.33 1025.58 1025.82 1026.02 1026.18 1026.28 1026.28 1026.20 1026.04 1025.81 1025.54 1025.25 1024.96 1024.67 1024.37 1024.05 1023.67 1023.20 1022.64 1021.96 1021.18 1020.32 1019.40 1018.44 1017.48 1016.51 1015.51 1014.48 1013.38 1012.18 1010.88 1009.48
1020.54 1021.07 1021.61 1022.17 1022.70 1023.19 1023.63 1024.01 1024.34 1024.65 1024.95 1025.26 1025.57 1025.87 1026.14 1026.36 1026.49 1026.52 1026.45 1026.29 1026.05 1025.77 1025.47 1025.16 1024.87 1024.56 1024.22 1023.82 1023.33 1022.74 1022.03 1021.22 1020.32 1019.37 1018.38 1017.37 1016.34 1015.27 1014.12 1012.87 1011.49 1009.98 1008.34
1020.08 1020.69 1021.31 1021.92 1022.49 1023.00 1023.45 1023.84 1024.18 1024.51 1024.85 1025.20 1025.56 1025.93 1026.27 1026.54 1026.73 1026.80 1026.75 1026.59 1026.35 1026.06 1025.75 1025.43 1025.11 1024.77 1024.40 1023.96 1023.42 1022.78 1022.04 1021.19 1020.27 1019.30 1018.30 1017.26 1016.20 1015.06 1013.82 1012.43 1010.88 1009.16 1007.29
1019.53 1020.24 1020.94 1021.62 1022.24 1022.79 1023.26 1023.67 1024.04 1024.39 1024.76 1025.15 1025.57 1025.99 1026.38 1026.71 1026.94 1027.05 1027.03 1026.90 1026.67 1026.39 1026.07 1025.73 1025.37 1024.99 1024.56 1024.06 1023.46 1022.76 1021.97 1021.09 1020.15 1019.17 1018.17 1017.14 1016.06 1014.89 1013.58 1012.09 1010.39 1008.48 1006.41
1018.92 1019.71 1020.51 1021.26 1021.95 1022.55 1023.06 1023.50 1023.89 1024.27 1024.67 1025.10 1025.55 1026.01 1026.45 1026.82 1027.09 1027.23 1027.25 1027.14 1026.94 1026.67 1026.35 1026.00 1025.62 1025.19 1024.70 1024.13 1023.46 1022.69 1021.84 1020.92 1019.97 1019.00 1018.01 1017.00 1015.94 1014.76 1013.42 1011.86 1010.05 1008.02 1005.79
1018.26 1019.15 1020.02 1020.86 1021.61 1022.26 1022.82 1023.30 1023.72 1024.13 1024.56 1025.01 1025.49 1025.98 1026.44 1026.83 1027.13 1027.31 1027.36 1027.29 1027.12 1026.87 1026.57 1026.21 1025.81 1025.34 1024.80 1024.16 1023.42 1022.59 1021.68 1020.73 1019.76 1018.80 1017.84 1016.87 1015.83 1014.68 1013.34 1011.75 1009.90 1007.79 1005.47
1017.59 1018.55 1019.50 1020.39 1021.20 1021.91 1022.52 1023.04 1023.50 1023.95 1024.40 1024.87 1025.36 1025.86 1026.33 1026.74 1027.05 1027.25 1027.33 1027.30 1027.17 1026.96 1026.68 1026.35 1025.94 1025.46 1024.87 1024.18 1023.39 1022.50 1021.55 1020.57 1019.59 1018.63 1017.70 1016.76 1015.76 1014.64 1013.33 1011.76 1009.91 1007.79 1005.44
1016.92 1017.93 1018.93 1019.87 1020.73 1021.49 1022.14 1022.71 1023.21 1023.69 1024.17 1024.66 1025.17 1025.67 1026.14 1026.55 1026.87 1027.08 1027.19 1027.19 1027.10 1026.94 1026.70 1026.40 1026.01 1025.53 1024.93 1024.22 1023.39 1022.47 1021.49 1020.48 1019.49 1018.53 1017.61 1016.69 1015.73 1014.65 1013.38 1011.86 1010.06 1007.98 1005.68
1016.26 1017.30 1018.32 1019.29 1020.19 1020.98 1021.68 1022.29 1022.84 1023.36 1023.87 1024.39 1024.91 1025.42 1025.89 1026.29 1026.61 1026.83 1026.95 1026.98 1026.94 1026.82 1026.64 1026.38 1026.04 1025.58 1025.01 1024.30 1023.47 1022.54 1021.54 1020.52 1019.52 1018.55 1017.62 1016.71 1015.76 1014.71 1013.48 1012.03 1010.31 1008.33 1006.13
1015.62 1016.65 1017.68 1018.66 1019.57 1020.39 1021.12 1021.78 1022.38 1022.95 1023.51 1024.07 1024.61 1025.13 1025.60 1026.00 1026.31 1026.53 1026.66 1026.72 1026.70 1026.63 1026.50 1026.31 1026.02 1025.62 1025.10 1024.43 1023.63 1022.72 1021.73 1020.70 1019.68 1018.69 1017.74 1016.81 1015.85 1014.81 1013.62 1012.23 1010.61 1008.76 1006.72
1014.99 1016.01 1017.02 1017.99 1018.90 1019.73 1020.50 1021.20 1021.85 1022.48 1023.09 1023.69 1024.26 1024.80 1025.28 1025.67 1025.98 1026.20 1026.34 1026.40 1026.42 1026.39 1026.31 1026.18 1025.97 1025.64 1025.19 1024.59 1023.85 1022.98 1022.02 1021.00 1019.97 1018.96 1017.97 1017.00 1016.01 1014.96 1013.79 1012.46 1010.94 1009.23 1007.37
1014.40 1015.38 1016.35 1017.29 1018.18 1019.02 1019.81 1020.54 1021.25 1021.93 1022.60 1023.25 1023.87 1024.43 1024.92 1025.32 1025.63 1025.84 1025.98 1026.05 1026.09 1026.09 1026.07 1026.00 1025.86 1025.62 1025.26 1024.76 1024.10 1023.30 1022.39 1021.40 1020.37 1019.33 1018.30 1017.28 1016.25 1015.17 1014.00 1012.72 1011.29 1009.73 1008.06
1013.85 1014.77 1015.69 1016.59 1017.46 1018.28 1019.08 1019.84 1020.59 1021.32 1022.05 1022.75 1023.40 1024.00 1024.50 1024.92 1025.23 1025.44 1025.57 1025.66 1025.71 1025.74 1025.76 1025.75 1025.69 1025.54 1025.28 1024.88 1024.32 1023.61 1022.77 1021.83 1020.82 1019.77 1018.71 1017.64 1016.56 1015.44 1014.27 1013.03 1011.69 1010.27 1008.79
1013.38 1014.23 1015.08 1015.93 1016.75 1017.55 1018.34 1019.11 1019.88 1020.66 1021.42 1022.16 1022.85 1023.48 1024.01 1024.44 1024.76 1024.97 1025.12 1025.21 1025.28 1025.33 1025.39 1025.44 1025.44 1025.39 1025.22 1024.93 1024.48 1023.88 1023.12 1022.25 1021.27 1020.24 1019.16 1018.06 1016.94 1015.80 1014.63 1013.42 1012.17 1010.88 1009.56
1013.02 1013.79 1014.57 1015.34 1016.11 1016.87 1017.62 1018.39 1019.16 1019.95 1020.73 1021.50 1022.22 1022.87 1023.43 1023.88 1024.21 1024.45 1024.60 1024.71 1024.80 1024.88 1024.98 1025.07 1025.14 1025.16 1025.09 1024.90 1024.56 1024.07 1023.41 1022.62 1021.71 1020.71 1019.64 1018.54 1017.41 1016.27 1015.11 1013.93 1012.75 1011.57 1010.41
1012.82 1013.50 1014.19 1014.89 1015.58 1016.28 1016.99 1017.72 1018.47 1019.24 1020.02 1020.80 1021.53 1022.20 1022.77 1023.24 1023.61 1023.87 1024.05 1024.19 1024.31 1024.42 1024.55 1024.69 1024.81 1024.89 1024.90 1024.80 1024.56 1024.17 1023.62 1022.92 1022.09 1021.15 1020.13 1019.06 1017.96 1016.84 1015.71 1014.58 1013.48 1012.39 1011.35
1012.82 1013.40 1014.00 1014.61 1015.22 1015.84 1016.48 1017.15 1017.85 1018.59 1019.35 1020.10 1020.83 1021.51 1022.10 1022.60 1022.99 1023.29 1023.52 1023.69 1023.85 1024.00 1024.16 1024.33 1024.49 1024.62 1024.69 1024.66 1024.50 1024.20 1023.75 1023.14 1022.41 1021.55 1020.61 1019.60 1018.56 1017.49 1016.42 1015.36 1014.32 1013.32 1012.38
1013.01 1013.50 1014.01 1014.52 1015.04 1015.57 1016.13 1016.73 1017.37 1018.05 1018.76 1019.48 1020.19 1020.86 1021.46 1021.99 1022.42 1022.76 1023.04 1023.26 1023.46 1023.65 1023.85 1024.05 1024.24 1024.39 1024.49 1024.50 1024.40 1024.17 1023.80 1023.29 1022.65 1021.90 1021.05 1020.13 1019.17 1018.18 1017.19 1016.20 1015.25 1014.34 1013.48
Thickness
5656 5655 5655 5654 5653 5653 5652 5651 5651 5650 5650 5649 5648 5647 5646 5644 5643 5642 5640 5640 5639 5638 5638 5638 5637 5637 5636 5636 5635 5635 5634 5633 5633 5633 5633 5633 5633 5633 5633 5633 5634 5634 5635
5650 5649 5648 5647 5646 5646 5645 5644 5644 5643 5642 5641 5641 5639 5638 5637 5636 5634 5633 5632 5630 5629 5629 5628 5628 5627 5627 5626 5626 5625 5624 5624 5623 5623 5623 5624 5624 5624 5624 5624 5625 5625 5626
5643 5642 5641 5640 5639 5639 5638 5637 5636 5635 5635 5634 5633 5631 5630 5629 5628 5627 5625 5623 5621 5620 5619 5618 5617 5617 5616 5615 5615 5614 5613 5613 5613 5613 5613 5613 5613 5614 5614 5614 5615 5615 5615
5636 5635 5634 5632 5632 5631 5630 5629 5628 5627 5626 5625 5624 5624 5623 5622 5620 5618 5616 5614 5612 5610 5609 5607 5606 5605 5604 5604 5603 5602 5602 5602 5602 5602 5602 5602 5602 5602 5603 5602 5603 5603 5604
5629 5628 5626 5625 5624 5623 5622 5621 5619 5618 5617 5616 5616 5616 5615 5613 5612 5610 5608 5605 5602 5600 5598 5596 5594 5593 5592 5591 5591 5591 5591 5590 5590 5590 5591 5591 5590 5590 5590 5590 5590 5590 5591
5621 5620 5619 5617 5616 5615 5613 5612 5610 5608 5607 5606 5608 5607 5606 5606 5604 5601 5598 5596 5593 5590 5587 5585 5583 5581 5580 5579 5579 5579 5579 5579 5579 5579 5579 5579 5578 5578 5578 5577 5577 5577 5577
5614 5613 5611 5609 5608 5606 5604 5603 5601 5599 5597 5597 5596 5597 5598 5597 5595 5592 5589 5586 5583 5580 5577 5574 5572 5570 5569 5568 5567 5567 5567 5568 5568 5568 5567 5567 5567 5565 5565 5564 5564 5563 5564
5606 5605 5603 5601 5599 5597 5595 5593 5592 5589 5586 5584 5582 5582 5583 5586 5585 5584 5580 5576 5572 5569 5567 5564 5562 5560 5558 5557 5556 5554 5554 5554 5555 5555 5555 5554 5554 5553 5552 5551 5551 5550 5550
5598 5596 5595 5592 5590 5589 5586 5584 5582 5579 5575 5573 5569 5566 5564 5566 5568 5572 5569 5566 5562 5559 5557 5554 5552 5550 5548 5546 5544 5542 5541 5540 5541 5542 5541 5541 5541 5541 5539 5538 5538 5537 5536
5590 5588 5586 5584 5582 5580 5577 5575 5572 5569 5566 5562 5559 5555 5551 5548 5546 5553 5557 5554 5551 5549 5546 5544 5541 5539 5536 5534 5531 5529 5528 5527 5527 5527 5527 5527 5527 5527 5526 5525 5524 5523 5522
5581 5580 5578 5576 5573 5571 5568 5566 5563 5560 5556 5552 5548 5544 5540 5535 5532 5531 5539 5544 5543 5540 5537 5534 5531 5528 5525 5522 5520 5518 5516 5515 5515 5514 5513 5512 5513 5513 5512 5512 5510 5509 5509
5572 5571 5569 5567 5564 5562 5559 5557 5554 5550 5547 5543 5538 5534 5530 5526 5523 5519 5521 5526 5529 5531 5528 5525 5520 5517 5514 5511 5509 5506 5505 5503 5502 5501 5500 5499 5499 5500 5499 5499 5498 5497 5498
5563 5562 5560 5558 5555 5553 5550 5548 5544 5541 5537 5533 5529 5525 5521 5517 5514 5510 5508 5510 5513 5518 5517 5515 5511 5507 5504 5501 5499 5496 5494 5492 5491 5490 5489 5488 5488 5488 5488 5488 5488 5488 5488
5556 5554 5551 5549 5546 5544 5541 5538 5534 5531 5527 5523 5520 5516 5512 5509 5505 5501 5497 5496 5499 5505 5506 5504 5501 5498 5494 5491 5489 5486 5484 5483 5482 5480 5479 5479 5478 5478 5478 5478 5478 5478 5478
5547 5544 5542 5539 5536 5534 5531 5528 5524 5521 5517 5514 5510 5507 5503 5500 5496 5492 5488 5484 5481 5486 5495 5495 5490 5489 5485 5482 5479 5477 5475 5474 5473 5472 5472 5471 5471 5471 5471 5471 5470 5470 5470
5538 5535 5532 5530 5527 5524 5521 5518 5514 5511 5507 5504 5501 5497 5494 5491 5488 5484 5480 5476 5472 5470 5476 5482 5479 5477 5475 5473 5471 5469 5468 5467 5466 5465 5465 5465 5465 5465 5465 5465 5464 5464 5464
5529 5526 5523 5521 5518 5515 5512 5508 5505 5501 5498 5494 5491 5488 5486 5483 5480 5476 5473 5469 5466 5462 5464 5472 5470 5468 5466 5465 5465 5463 5461 5461 5460 5459 5460 5460 5460 5460 5460 5459 5459 5460 5460
5520 5517 5514 5511 5508 5506 5503 5499 5495 5492 5489 5485 5482 5479 5477 5475 5472 5469 5466 5463 5460 5457 5455 5460 5462 5460 5458 5457 5457 5456 5456 5455 5454 5454 5454 5455 5455 5455 5455 5455 5455 5455 5456
5510 5508 5505 5502 5499 5496 5493 5490 5487 5483 5480 5477 5474 5471 5469 5466 5464 5461 5458 5456 5453 5452 5449 5449 5452 5452 5451 5450 5449 5450 5449 5449 5449 5449 5449 5450 5449 5450 5450 5450 5451 5451 5453
5501 5498 5496 5493 5490 5487 5484 5481 5478 5475 5471 5468 5465 5463 5460 5458 5456 5454 5452 5450 5447 5445 5443 5442 5444 5444 5443 5443 5441 5442 5444 5443 5443 5444 5444 5443 5443 5444 5445 5445 5446 5447 5448
5491 5488 5486 5483 5480 5477 5475 5472 5470 5467 5463 5460 5457 5454 5452 5450 5449 5447 5445 5443 5440 5438 5437 5436 5436 5437 5436 5436 5434 5433 5434 5436 5438 5437 5437 5439 5438 5439 5439 5439 5441 5442 5443
5480 5477 5475 5472 5469 5467 5466 5464 5461 5458 5454 5451 5448 5447 5444 5443 5441 5440 5439 5437 5434 5432 5430 5429 5429 5428 5429 5428 5427 5427 5426 5427 5431 5432 5429 5433 5433 5433 5434 5434 5436 5437 5438
5468 5466 5464 5461 5459 5457 5457 5455 5453 5449 5445 5442 5440 5438 5437 5435 5434 5433 5432 5431 5428 5425 5423 5421 5421 5421 5421 5421 5420 5421 5420 5419 5420 5422 5422 5427 5427 5428 5429 5429 5431 5433 5434
5457 5455 5453 5451 5449 5447 5446 5445 5443 5440 5436 5434 5431 5429 5428 5427 5426 5426 5426 5424 5422 5420 5417 5415 5415 5415 5415 5416 5415 5414 5414 5414 5416 5416 5415 5417 5421 5422 5424 5425 5426 5428 5430
5446 5444 5442 5440 5438 5437 5436 5435 5433 5430 5428 5425 5424 5421 5420 5419 5420 5420 5418 5417 5416 5415 5413 5411 5411 5410 5411 5411 5410 5410 5409 5409 5412 5413 5410 5410 5413 5415 5418 5420 5421 5422 5424
5435 5434 5432 5429 5428 5426 5425 5424 5423 5421 5419 5417 5416 5414 5413 5412 5413 5412 5410 5408 5408 5408 5407 5407 5406 5406 5406 5406 5405 5404 5403 5403 5404 5406 5406 5404 5405 5406 5411 5413 5414 5416 5418